Time_in_sec,gx,gy,gz
1323444848.45249248,-0.00421362,0.00592080,-0.99997359
1323444848.50053120,-0.00416825,0.00598669,-0.99997339
1323444848.54958606,-0.00465051,0.00639632,-0.99996873
1323444848.60051870,-0.00462126,0.00613342,-0.99997051
1323444848.64965153,-0.00460544,0.00632122,-0.99996942
1323444848.68955159,-0.00467785,0.00652925,-0.99996774
1323444848.74852347,-0.00469324,0.00672639,-0.99996636
1323444848.78865886,-0.00514015,0.00667784,-0.99996449
1323444848.84854603,-0.00521172,0.00646100,-0.99996555
1323444848.90051293,-0.00498219,0.00627625,-0.99996789
1323444848.94153762,-0.00523682,0.00631609,-0.99996634
1323444849.00058699,-0.00519273,0.00639254,-0.99996608
1323444849.04863977,-0.00496760,0.00644743,-0.99996688
1323444849.10207796,-0.00512269,0.00630747,-0.99996699
1323444849.14988256,-0.00524133,0.00624828,-0.99996674
1323444849.18956256,-0.00537922,0.00642591,-0.99996489
1323444849.24861717,-0.00533490,0.00640148,-0.99996528
1323444849.30153990,-0.00545327,0.00663340,-0.99996313
1323444849.34967494,-0.00536961,0.00678539,-0.99996256
1323444849.40050316,-0.00542804,0.00698026,-0.99996091
1323444849.44066572,-0.00544406,0.00694679,-0.99996105
1323444849.50459290,-0.00545249,0.00714904,-0.99995958
1323444849.54968214,-0.00596092,0.00738217,-0.99995498
1323444849.60053110,-0.00595511,0.00725887,-0.99995592
1323444849.64988041,-0.00620320,0.00725402,-0.99995445
1323444849.68861890,-0.00623707,0.00705787,-0.99995564
1323444849.74863195,-0.00625816,0.00713147,-0.99995499
1323444849.80085206,-0.00656516,0.00688143,-0.99995477
1323444849.84951329,-0.00644399,0.00668717,-0.99995688
1323444849.89815831,-0.00641122,0.00678684,-0.99995642
1323444849.94050312,-0.00633948,0.00673536,-0.99995722
1323444850.00129461,-0.00643745,0.00675674,-0.99995645
1323444850.04851365,-0.00614534,0.00669247,-0.99995872
1323444850.10143042,-0.00608333,0.00649222,-0.99996042
1323444850.14850831,-0.00605101,0.00650676,-0.99996052
1323444850.18957591,-0.00623772,0.00661518,-0.99995866
1323444850.24855351,-0.00627262,0.00657977,-0.99995868
1323444850.29801965,-0.00678449,0.00654395,-0.99995557
1323444850.34863091,-0.00672137,0.00648864,-0.99995636
1323444850.40166044,-0.00681063,0.00647998,-0.99995581
1323444850.43897486,-0.00663011,0.00617724,-0.99995894
1323444850.50166178,-0.00654959,0.00624945,-0.99995902
1323444850.54982352,-0.00636601,0.00584903,-0.99996263
1323444850.60050368,-0.00642934,0.00580038,-0.99996251
1323444850.64858675,-0.00644539,0.00588393,-0.99996192
1323444850.69065428,-0.00646948,0.00601053,-0.99996101
1323444850.74959779,-0.00652433,0.00610489,-0.99996008
1323444850.80064273,-0.00651928,0.00604143,-0.99996050
1323444850.84045720,-0.00652498,0.00584478,-0.99996163
1323444850.90166211,-0.00638710,0.00583094,-0.99996260
1323444850.94160104,-0.00659170,0.00557285,-0.99996275
1323444851.00168085,-0.00652738,0.00549269,-0.99996361
1323444851.04957891,-0.00668775,0.00523209,-0.99996395
1323444851.10354900,-0.00666642,0.00558398,-0.99996219
1323444851.15262723,-0.00677212,0.00587172,-0.99995983
1323444851.18872929,-0.00689364,0.00606075,-0.99995787
1323444851.25252748,-0.00710515,0.00610575,-0.99995612
1323444851.30156898,-0.00740666,0.00598511,-0.99995466
1323444851.34975719,-0.00743586,0.00619220,-0.99995318
1323444851.40064907,-0.00733846,0.00644593,-0.99995230
1323444851.45264721,-0.00750476,0.00625532,-0.99995227
1323444851.50453138,-0.00757709,0.00632496,-0.99995129
1323444851.55253673,-0.00764400,0.00598337,-0.99995288
1323444851.60156703,-0.00757478,0.00609843,-0.99995271
1323444851.64883804,-0.00742444,0.00616656,-0.99995342
1323444851.68954492,-0.00736204,0.00632786,-0.99995288
1323444851.75021815,-0.00725078,0.00628084,-0.99995399
1323444851.80052662,-0.00745576,0.00606711,-0.99995380
1323444851.84860921,-0.00758229,0.00613835,-0.99995241
1323444851.90247607,-0.00772686,0.00621367,-0.99995084
1323444851.94937348,-0.00798339,0.00622648,-0.99994875
1323444852.00152850,-0.00825102,0.00619302,-0.99994678
1323444852.05269742,-0.00826605,0.00572256,-0.99994946
1323444852.10054231,-0.00820406,0.00584162,-0.99994928
1323444852.14849210,-0.00833403,0.00587181,-0.99994803
1323444852.18894935,-0.00816986,0.00586747,-0.99994941
1323444852.24946475,-0.00817412,0.00584467,-0.99994951
1323444852.29834676,-0.00871525,0.00586068,-0.99994485
1323444852.34957409,-0.00857311,0.00596891,-0.99994544
1323444852.40052223,-0.00875430,0.00588900,-0.99994434
1323444852.44466066,-0.00872003,0.00612385,-0.99994323
1323444852.50052857,-0.00866210,0.00611641,-0.99994378
1323444852.54980111,-0.00862958,0.00623604,-0.99994332
1323444852.60855103,-0.00850763,0.00618773,-0.99994466
1323444852.64851618,-0.00863596,0.00600512,-0.99994468
1323444852.69000912,-0.00866105,0.00612245,-0.99994375
1323444852.74851775,-0.00877298,0.00609221,-0.99994296
1323444852.80165219,-0.00892290,0.00619584,-0.99994099
1323444852.84968734,-0.00881958,0.00608931,-0.99994257
1323444852.90163946,-0.00872300,0.00609292,-0.99994339
1323444852.94979787,-0.00889354,0.00603888,-0.99994222
1323444853.00052571,-0.00887790,0.00593806,-0.99994296
1323444853.04856515,-0.00921481,0.00603715,-0.99993932
1323444853.09801292,-0.00912326,0.00625165,-0.99993884
1323444853.14851308,-0.00921689,0.00630251,-0.99993766
1323444853.20069981,-0.00935538,0.00635509,-0.99993604
1323444853.24901199,-0.00929340,0.00620979,-0.99993753
1323444853.30048990,-0.00945836,0.00614439,-0.99993639
1323444853.34968424,-0.00962429,0.00610382,-0.99993506
1323444853.40154457,-0.00951715,0.00613973,-0.99993586
1323444853.44852781,-0.00950713,0.00637028,-0.99993451
1323444853.50054765,-0.00949780,0.00640409,-0.99993439
1323444853.54862952,-0.00921170,0.00624689,-0.99993806
1323444853.60153723,-0.00953267,0.00642506,-0.99993392
1323444853.64850497,-0.00944499,0.00648153,-0.99993439
1323444853.70066190,-0.00951389,0.00669120,-0.99993235
1323444853.74954772,-0.00953690,0.00675913,-0.99993168
1323444853.80173206,-0.00911566,0.00625217,-0.99993891
1323444853.84969306,-0.00931543,0.00631444,-0.99993667
1323444853.89789772,-0.00926598,0.00642101,-0.99993645
1323444853.95253253,-0.00938808,0.00673869,-0.99993322
1323444854.00096369,-0.00958684,0.00658837,-0.99993234
1323444854.04895496,-0.00974284,0.00655059,-0.99993108
1323444854.10070729,-0.00979768,0.00669488,-0.99992959
1323444854.15251732,-0.01006012,0.00685590,-0.99992589
1323444854.20052648,-0.01012531,0.00697226,-0.99992443
1323444854.25252557,-0.01019152,0.00695754,-0.99992386
1323444854.29945731,-0.00988920,0.00657604,-0.99992948
1323444854.34865594,-0.01014122,0.00645657,-0.99992773
1323444854.40156746,-0.01017031,0.00635304,-0.99992810
1323444854.44951177,-0.01036274,0.00645762,-0.99992545
1323444854.50167608,-0.01031692,0.00634931,-0.99992662
1323444854.54965138,-0.01008963,0.00633763,-0.99992901
1323444854.60156274,-0.00978967,0.00633098,-0.99993204
1323444854.64959788,-0.00963268,0.00632603,-0.99993359
1323444854.70176148,-0.00949072,0.00625984,-0.99993537
1323444854.74857330,-0.00949977,0.00637881,-0.99993453
1323444854.80153894,-0.00963451,0.00630051,-0.99993374
1323444854.84980512,-0.00958095,0.00614687,-0.99993521
1323444854.90150738,-0.00976730,0.00631256,-0.99993237
1323444854.94865179,-0.00989093,0.00635092,-0.99993092
1323444855.00150084,-0.00978940,0.00639663,-0.99993162
1323444855.04950070,-0.00976221,0.00611638,-0.99993364
1323444855.09836030,-0.01014172,0.00598517,-0.99993066
1323444855.15003800,-0.01015049,0.00607560,-0.99993002
1323444855.18848658,-0.01037763,0.00613499,-0.99992733
1323444855.24854016,-0.01042259,0.00619060,-0.99992652
1323444855.30051136,-0.01034073,0.00591025,-0.99992907
1323444855.34949470,-0.01036077,0.00596761,-0.99992852
1323444855.40149522,-0.01032119,0.00621190,-0.99992744
1323444855.44163370,-0.00989386,0.00625214,-0.99993151
1323444855.49863887,-0.01008666,0.00640352,-0.99992862
1323444855.54865551,-0.01025384,0.00614377,-0.99992855
1323444855.60164237,-0.01017838,0.00617455,-0.99992914
1323444855.64054036,-0.01024416,0.00620162,-0.99992830
1323444855.68853378,-0.01048977,0.00640858,-0.99992444
1323444855.75022769,-0.01041191,0.00639746,-0.99992533
1323444855.80053496,-0.01043436,0.00605994,-0.99992720
1323444855.84885859,-0.01045610,0.00595879,-0.99992758
1323444855.90023446,-0.01035365,0.00599225,-0.99992844
1323444855.94857883,-0.01028767,0.00588821,-0.99992974
1323444856.00172472,-0.01045134,0.00588427,-0.99992807
1323444856.04866219,-0.01051764,0.00559109,-0.99992906
1323444856.10053205,-0.01028492,0.00571971,-0.99993075
1323444856.14851642,-0.01034396,0.00566182,-0.99993047
1323444856.18915200,-0.01032998,0.00573933,-0.99993017
1323444856.24866867,-0.01035728,0.00566264,-0.99993033
1323444856.29794502,-0.01049975,0.00551408,-0.99992967
1323444856.34861803,-0.01036247,0.00534597,-0.99993202
1323444856.40053678,-0.01029903,0.00549726,-0.99993185
1323444856.43962216,-0.01039657,0.00553449,-0.99993064
1323444856.49799800,-0.01049278,0.00551043,-0.99992977
1323444856.54969358,-0.01076095,0.00540296,-0.99992750
1323444856.60072088,-0.01085164,0.00540314,-0.99992652
1323444856.65261054,-0.01059565,0.00536136,-0.99992949
1323444856.68977714,-0.01058393,0.00525645,-0.99993017
1323444856.74930549,-0.01061052,0.00537845,-0.99992924
1323444856.80056930,-0.01022102,0.00500074,-0.99993526
1323444856.85250020,-0.01010273,0.00483594,-0.99993727
1323444856.90100145,-0.01018110,0.00495663,-0.99993589
1323444856.94055033,-0.01008575,0.00495183,-0.99993688
1323444857.00108027,-0.01004613,0.00519455,-0.99993604
1323444857.05250669,-0.00984710,0.00486255,-0.99993969
1323444857.10453820,-0.00971411,0.00476548,-0.99994146
1323444857.15255380,-0.00957550,0.00473813,-0.99994293
1323444857.18967628,-0.00952468,0.00489002,-0.99994268
1323444857.24964452,-0.00956023,0.00508472,-0.99994137
1323444857.30152774,-0.00954516,0.00478144,-0.99994301
1323444857.34965873,-0.00958452,0.00490500,-0.99994204
1323444857.41368198,-0.00961511,0.00501989,-0.99994117
1323444857.44069242,-0.00981244,0.00493779,-0.99993967
1323444857.50444770,-0.01009966,0.00496547,-0.99993667
1323444857.54855132,-0.00995518,0.00464731,-0.99993965
1323444857.60068583,-0.01010606,0.00477608,-0.99993753
1323444857.65251970,-0.01002814,0.00511798,-0.99993662
1323444857.68962860,-0.01020003,0.00522712,-0.99993432
1323444857.74852872,-0.01036558,0.00517796,-0.99993287
1323444857.80149460,-0.01009860,0.00481172,-0.99993743
1323444857.84952474,-0.01020068,0.00500556,-0.99993544
1323444857.90050268,-0.01041093,0.00496296,-0.99993349
1323444857.94119549,-0.01033863,0.00493498,-0.99993438
1323444858.00242257,-0.01055061,0.00493907,-0.99993214
1323444858.04852486,-0.01053252,0.00476317,-0.99993319
1323444858.10159922,-0.01040172,0.00488379,-0.99993397
1323444858.15255618,-0.01052003,0.00525529,-0.99993085
1323444858.18850970,-0.01061528,0.00528964,-0.99992967
1323444858.24863076,-0.01050281,0.00544381,-0.99993003
1323444858.29838991,-0.01048430,0.00528378,-0.99993108
1323444858.34854221,-0.01056716,0.00524319,-0.99993042
1323444858.40167904,-0.01053379,0.00534453,-0.99993024
1323444858.44053483,-0.01060939,0.00546132,-0.99992880
1323444858.50092173,-0.01056021,0.00545132,-0.99992938
1323444858.54995966,-0.01086415,0.00544747,-0.99992614
1323444858.60089660,-0.01091542,0.00550455,-0.99992527
1323444858.64948416,-0.01113889,0.00525685,-0.99992414
1323444858.68948507,-0.01138798,0.00528713,-0.99992118
1323444858.74859071,-0.01156017,0.00548284,-0.99991815
1323444858.80064225,-0.01078173,0.00549331,-0.99992679
1323444858.84852052,-0.01086295,0.00558004,-0.99992543
1323444858.90082908,-0.01111248,0.00556569,-0.99992276
1323444858.95012808,-0.01114579,0.00568059,-0.99992175
1323444859.00069833,-0.01117694,0.00568021,-0.99992140
1323444859.04963756,-0.01056727,0.00541052,-0.99992953
1323444859.10122108,-0.01061984,0.00554503,-0.99992823
1323444859.14862728,-0.01051975,0.00544135,-0.99992986
1323444859.18897796,-0.01054019,0.00553982,-0.99992910
1323444859.24857402,-0.01034016,0.00539057,-0.99993201
1323444859.30066943,-0.00958467,0.00489957,-0.99994206
1323444859.34996843,-0.00966245,0.00505587,-0.99994054
1323444859.40165329,-0.00971891,0.00505065,-0.99994002
1323444859.44063497,-0.00963463,0.00519781,-0.99994008
1323444859.50195551,-0.00955746,0.00530378,-0.99994026
1323444859.54957294,-0.00908883,0.00537750,-0.99994424
1323444859.60052609,-0.00926766,0.00531025,-0.99994295
1323444859.64851451,-0.00951353,0.00540342,-0.99994015
1323444859.70150495,-0.00972077,0.00562956,-0.99993691
1323444859.74859047,-0.00967311,0.00553281,-0.99993791
1323444859.80155730,-0.00944621,0.00512369,-0.99994226
1323444859.85251451,-0.00939823,0.00507616,-0.99994295
1323444859.90312982,-0.00944031,0.00489284,-0.99994347
1323444859.95252347,-0.00934707,0.00505096,-0.99994356
1323444860.00053573,-0.00937125,0.00501442,-0.99994352
1323444860.05250502,-0.00901357,0.00531287,-0.99994526
1323444860.10050869,-0.00897592,0.00529482,-0.99994570
1323444860.14966488,-0.00910701,0.00541564,-0.99994387
1323444860.20050550,-0.00929199,0.00541057,-0.99994219
1323444860.24951267,-0.00924881,0.00550155,-0.99994209
1323444860.30453873,-0.00967165,0.00571458,-0.99993690
1323444860.35250449,-0.00981294,0.00578573,-0.99993511
1323444860.40050554,-0.00992089,0.00589636,-0.99993340
1323444860.44051313,-0.01001065,0.00589734,-0.99993250
1323444860.50051284,-0.00991342,0.00570243,-0.99993460
1323444860.54954815,-0.00985853,0.00526040,-0.99993757
1323444860.60155487,-0.00975297,0.00542403,-0.99993773
1323444860.64854503,-0.00981633,0.00552827,-0.99993654
1323444860.68952107,-0.00994009,0.00560348,-0.99993490
1323444860.74963188,-0.01014097,0.00550786,-0.99993341
1323444860.80155468,-0.01036767,0.00490465,-0.99993423
1323444860.84994864,-0.01029444,0.00500805,-0.99993447
1323444860.90211511,-0.01016524,0.00512911,-0.99993518
1323444860.95000935,-0.01028247,0.00518902,-0.99993367
1323444861.00155735,-0.01020381,0.00515609,-0.99993465
1323444861.04952812,-0.00962379,0.00439429,-0.99994403
1323444861.10394526,-0.00951853,0.00441483,-0.99994495
1323444861.14851761,-0.00961552,0.00447160,-0.99994377
1323444861.20062995,-0.00959927,0.00475421,-0.99994262
1323444861.24851155,-0.00970934,0.00484803,-0.99994111
1323444861.30053043,-0.00978140,0.00377815,-0.99994502
1323444861.34986639,-0.00958006,0.00383673,-0.99994675
1323444861.40165043,-0.00944556,0.00393339,-0.99994765
1323444861.44885778,-0.00951346,0.00381304,-0.99994748
1323444861.49832177,-0.00958203,0.00398783,-0.99994614
1323444861.54850960,-0.00878968,0.00373834,-0.99995438
1323444861.60052538,-0.00881394,0.00362960,-0.99995457
1323444861.64852571,-0.00898694,0.00374207,-0.99995261
1323444861.70052767,-0.00913359,0.00392247,-0.99995059
1323444861.74961853,-0.00912099,0.00378217,-0.99995125
1323444861.80165887,-0.00756043,0.00361430,-0.99996489
1323444861.84851646,-0.00741306,0.00350200,-0.99996639
1323444861.89814210,-0.00726967,0.00347369,-0.99996754
1323444861.94938731,-0.00699277,0.00369237,-0.99996873
1323444862.00054193,-0.00693535,0.00381646,-0.99996867
1323444862.04849911,-0.00572378,0.00327509,-0.99997826
1323444862.10053968,-0.00571564,0.00326044,-0.99997835
1323444862.14975119,-0.00582946,0.00319104,-0.99997792
1323444862.20164037,-0.00573405,0.00315490,-0.99997858
1323444862.24851751,-0.00549050,0.00285123,-0.99998086
1323444862.30053687,-0.00557891,0.00281796,-0.99998047
1323444862.34855390,-0.00564741,0.00272068,-0.99998035
1323444862.40164590,-0.00549411,0.00270882,-0.99998124
1323444862.44851327,-0.00531614,0.00273452,-0.99998213
1323444862.50156283,-0.00519425,0.00278554,-0.99998263
1323444862.54859543,-0.00417760,0.00248543,-0.99998819
1323444862.60156345,-0.00420496,0.00264267,-0.99998767
1323444862.64868283,-0.00425403,0.00273421,-0.99998721
1323444862.68981886,-0.00436837,0.00269490,-0.99998683
1323444862.75359821,-0.00451131,0.00293724,-0.99998551
1323444862.80054569,-0.00379485,0.00350299,-0.99998666
1323444862.84876204,-0.00398920,0.00368394,-0.99998526
1323444862.90052080,-0.00416846,0.00362261,-0.99998475
1323444862.94968033,-0.00430283,0.00372004,-0.99998382
1323444863.00052595,-0.00409541,0.00365534,-0.99998493
1323444863.04893565,-0.00349746,0.00486635,-0.99998204
1323444863.10456491,-0.00335097,0.00492146,-0.99998227
1323444863.15365148,-0.00337901,0.00506281,-0.99998147
1323444863.20054793,-0.00345028,0.00494520,-0.99998182
1323444863.24223280,-0.00333370,0.00514725,-0.99998120
1323444863.30065107,-0.00374278,0.00579698,-0.99997619
1323444863.34969425,-0.00400961,0.00561475,-0.99997620
1323444863.40155506,-0.00407812,0.00564973,-0.99997572
1323444863.44856453,-0.00414611,0.00589871,-0.99997401
1323444863.50198388,-0.00532767,0.00666673,-0.99996358
1323444863.54859638,-0.00522562,0.00669050,-0.99996396
1323444863.60164165,-0.00506413,0.00695056,-0.99996302
1323444863.64853144,-0.00488811,0.00664208,-0.99996599
1323444863.70064569,-0.00492123,0.00655185,-0.99996643
1323444863.74955440,-0.00502068,0.00671034,-0.99996488
1323444863.80109644,-0.00503090,0.00653933,-0.99996596
1323444863.84955454,-0.00502488,0.00648529,-0.99996635
1323444863.89849854,-0.00499350,0.00657307,-0.99996593
1323444863.94855833,-0.00504641,0.00655605,-0.99996578
1323444864.00154233,-0.00558027,0.00691014,-0.99996055
1323444864.04851198,-0.00585589,0.00667133,-0.99996060
1323444864.10158324,-0.00608070,0.00648073,-0.99996051
1323444864.14954090,-0.00598006,0.00639961,-0.99996164
1323444864.20153451,-0.00594955,0.00652804,-0.99996099
1323444864.24853778,-0.00628335,0.00617123,-0.99996122
1323444864.30230188,-0.00639949,0.00631321,-0.99995959
1323444864.34856915,-0.00637087,0.00647282,-0.99995876
1323444864.40164900,-0.00657639,0.00651075,-0.99995718
1323444864.44848919,-0.00669142,0.00649758,-0.99995650
1323444864.50064182,-0.00676308,0.00693954,-0.99995305
1323444864.54854894,-0.00604935,0.00669187,-0.99995931
1323444864.60151124,-0.00603988,0.00682650,-0.99995846
1323444864.64851594,-0.00605699,0.00688156,-0.99995798
1323444864.69012237,-0.00598120,0.00707970,-0.99995705
1323444864.74864149,-0.00614539,0.00712432,-0.99995574
1323444864.80063200,-0.00573221,0.00625170,-0.99996403
1323444864.84863114,-0.00564231,0.00627625,-0.99996439
1323444864.90051222,-0.00549550,0.00626940,-0.99996525
1323444864.94851899,-0.00544580,0.00650301,-0.99996403
1323444865.00126576,-0.00558539,0.00656076,-0.99996288
1323444865.04850507,-0.00526536,0.00627673,-0.99996644
1323444865.09804988,-0.00524017,0.00643337,-0.99996558
1323444865.14903593,-0.00513182,0.00644035,-0.99996609
1323444865.20152164,-0.00512768,0.00639294,-0.99996642
1323444865.24062657,-0.00481267,0.00587353,-0.99997117
1323444865.30049181,-0.00470982,0.00603756,-0.99997068
1323444865.34973383,-0.00480561,0.00635185,-0.99996828
1323444865.40051174,-0.00497570,0.00644424,-0.99996686
1323444865.44950104,-0.00483527,0.00668578,-0.99996596
1323444865.50051236,-0.00553662,0.00607972,-0.99996619
1323444865.54959631,-0.00564344,0.00614271,-0.99996521
1323444865.60062695,-0.00549287,0.00625166,-0.99996537
1323444865.64872742,-0.00576482,0.00636502,-0.99996313
1323444865.70055175,-0.00569917,0.00639349,-0.99996332
1323444865.74963999,-0.00576812,0.00533663,-0.99996912
1323444865.80166936,-0.00570144,0.00522561,-0.99997009
1323444865.84936953,-0.00562723,0.00519270,-0.99997068
1323444865.90448880,-0.00551060,0.00501448,-0.99997224
1323444865.95279884,-0.00549535,0.00524036,-0.99997117
1323444866.00151801,-0.00558159,0.00530779,-0.99997034
1323444866.05283976,-0.00599064,0.00469102,-0.99997105
1323444866.10166574,-0.00590141,0.00472569,-0.99997142
1323444866.14971042,-0.00602741,0.00478728,-0.99997038
1323444866.20163965,-0.00629321,0.00476766,-0.99996883
1323444866.25315857,-0.00823195,0.00438828,-0.99995649
1323444866.30049872,-0.00828767,0.00452138,-0.99995543
1323444866.35263562,-0.00838735,0.00463091,-0.99995410
